Regional Weather Roundup
Issued by NWS Spokane, WA

Home | Current Version | Previous Version | Text Only | Print | Product List | Glossary On
Versions: 1 2 3 4 5 6 7 8 9 10 11 12 13 14 15 16 17 18 19 20 21 22 23 24 25 26 27 28 29 30 31 32 33 34 35 36 37 38 39 40 41 42 43 44 45 46 47 48 49 50
000
NZUS01 KOTX 270925
RWROTX

Eastern Washington/Northern Idaho Roundup
National Weather Service, Spokane WA
200 AM PDT THU APR 27 2017

Note: "fair" indicated few or no clouds below 12,000 feet with no
significant weather and/or obstructions to visibility.

...Northeast Washington and Northern Idaho Panhandle...

CITY           SKY/WX    TMP DP  RH WIND       PRES   REMARKS
Spokane Intl   PTCLDY    39  31  72 SW14      29.74R
Spokane Downto CLOUDY    40  37  89 MISG      29.76R
Coeur d Alene  MOCLDY    40  37  89 S6        29.76R
Deer Park      MOCLDY    36  34  92 SE3       29.75R
Sandpoint      LGT RAIN  41  39  93 S7        29.73S
Bonners Ferry  CLOUDY    41  37  87 SW5       29.69S

...Southeast Washington and southern Idaho Panhandle...

CITY           SKY/WX    TMP DP  RH WIND       PRES   REMARKS
Walla Walla    CLOUDY    46  37  71 SW13      29.92R
Pullman/Moscow CLEAR     39  33  79 W17G28    29.83S
Lewiston       MOCLDY    44  37  76 W7        29.85S
Lowell           N/A     42  39  89 CALM      29.88R
Grangeville    FAIR      37  32  81 SW17G24   29.82S

...Columbia Basin...

CITY           SKY/WX    TMP DP  RH WIND       PRES   REMARKS
Ephrata        PTCLDY    47  25  42 W18       29.82R
Moses Lake     PTCLDY    45  30  55 W20       29.82S
Pasco          CLEAR     41  34  76 W3        29.93R
Richland       MOSUNNY   43  34  72 SW6       29.93R
Hermiston      CLEAR     45  36  70 W17G26    29.93R
Pendleton      LGT RAIN  43  34  70 W29G36    29.91S

...East Slopes Cascades...

CITY           SKY/WX    TMP DP  RH WIND       PRES   REMARKS
The Dalles     PTCLDY    48  35  60 W17G29    30.00R
Yakima         CLEAR     44  28  53 CALM      29.91R
Ellensburg     CLEAR     40  32  73 NW16      29.88R
Stampede Pass  SNOW      30  30 100 W9G17     29.87R VSB 1/4 WCI  22
Wenatchee      CLEAR     43  28  55 NW8       29.84R
Omak           CLEAR     42  24  49 W6        29.76S
Chelan           N/A     45  27  49 S9          N/A
Sunnyside      SUNNY     38  31  76 S3        29.92R

...Southern British Columbia...

CITY           SKY/WX    TMP DP  RH WIND       PRES   REMARKS
Penticton      CLOUDY    48  34  57 CALM      29.76R
Cranbrook      CLOUDY    37  36  93 CALM      29.63R
Osoyoos          N/A     52  25  35 N6          N/A
Creston          N/A     43  39  87 W1          N/A

...Western Montana...

CITY           SKY/WX    TMP DP  RH WIND       PRES   REMARKS
Kalispell      LGT RAIN  40 N/A N/A S15       29.66R
Libby            N/A     39  39 100 CALM      29.66S
Missoula       CLOUDY    42  36  79 E5        29.72F

...Neighboring Cities...

CITY           SKY/WX    TMP DP  RH WIND       PRES   REMARKS
Seattle        CLOUDY    45  39  79 SW14      30.02R
Portland       PTCLDY    43  39  86 W6        30.12S
Boise          PTCLDY    41  37  86 NW12      29.86S
Great Falls    CLOUDY    37  35  92 SW9       29.59S
Calgary        CLOUDY    34  32  93 E8        29.65S FOG     WCI  27



USA.gov is the U.S. government's official web portal to all federal, state and local government web resources and services.